Regional Weather Roundup
Issued by NWS

Home | Current Version | Previous Version | Text Only | Print | Product List | Glossary On
Versions: 1 2 3 4 5 6 7 8 9 10 11 12 13 14 15 16 17 18 19 20 21 22 23 24 25 26 27
000
ASUS44 KJAN 291020
RWRMS

MISSISSIPPI HOURLY WEATHER ROUNDUP
NATIONAL WEATHER SERVICE JACKSON MS
500 AM CDT THU SEP 29 2016

NOTE: "FAIR: INDICATES FEW OR NO CLOUDS BELOW 12,000 FEET WITH NO
SIGNIFICANT WEATHER AND/OR OBSTRUCTIONS TO VISIBILITY.

MSZ001>002-007>008-010>013-018>021-025>028-034>036-291100-
NORTHWEST MISSISSIPPI

CITY           SKY/WX    TMP DP  RH WIND       PRES   REMARKS
BATESVILLE     FAIR      54  46  75 CALM      30.11S
CLARKSDALE     PTCLDY    54  48  82 N6        30.13R
CLEVELAND      FAIR      55  48  79 N7        30.11R
GREENWOOD      CLEAR     59  45  59 N8        30.08R
GREENVILLE     LGT RAIN  62  45  53 NE13      30.10R
OXFORD         FAIR      50  45  81 N3        30.12R
TUNICA         SUNNY     50  45  81 NW5       30.14R
WINONA         FAIR      59  46  60 N8        30.07R
$$

MSZ003>006-009-014>017-022>024-029>033-037>039-291100-
NORTHEAST MISSISSIPPI

CITY           SKY/WX    TMP DP  RH WIND       PRES   REMARKS
COLUMBUS AFB   NOT AVBL
CORINTH          N/A     50  46  87 NW5       30.08R
GOLDN TRIANGLE CLEAR     59  43  55 N9        30.05R
STARKVILLE     FAIR      59  46  63 N6        30.07R
TUPELO         CLEAR     56  45  66 NW9       30.08R
$$

MSZ040-058-291100-
CENTRAL MISSISSIPPI

CITY           SKY/WX    TMP DP  RH WIND       PRES   REMARKS
JACKSON INTL   CLEAR     66  53  63 N14       30.03R
JACKSON HAWKNS CLEAR     65  53  65 N3        30.04R
MADISON        FAIR      61  52  72 N5        30.05R
MERIDIAN KEY   CLEAR     62  55  77 N7        30.01R
MERIDIAN NAS   CLEAR     64  53  67 N6        30.02R
VICKSBURG VKS  SUNNY     64  55  72 N12       30.04R
$$

MSZ059>079-291100-
SOUTH MISSISSIPPI

CITY           SKY/WX    TMP DP  RH WIND       PRES   REMARKS
BROOKHAVEN     FAIR     N/A N/A N/A N7        30.04R
HATTIESBURG    CLEAR     65  62  90 CALM      30.01R
LAUREL         FAIR      60  60 100 NW3       30.00R
MCCOMB         PTCLDY    66  62  87 N5        30.02R
NATCHEZ        CLEAR     63  55  77 N6        30.04R
PINE BELT      PTCLDY    63  59  88 W3        30.02R
$$

MSZ080>082-291100-
COASTAL MISSISSIPPI

CITY           SKY/WX    TMP DP  RH WIND       PRES   REMARKS
BILOXI         NOT AVBL
PASCAGOULA     CLEAR     63  63 100 CALM      29.99S FOG
GULFPORT       CLEAR     69  67  93 CALM      29.99R
$$

LAZ007>009-015>016-023>026-291100-
NORTHEAST LOUISIANA

CITY           SKY/WX    TMP DP  RH WIND       PRES   REMARKS
BASTROP        FAIR      61  50  67 N3        30.10R
TALLULAH/VBURG CLEAR     64  52  64 N12       30.06R
$$




USA.gov is the U.S. government's official web portal to all federal, state and local government web resources and services.